Flag for U.S.A. Weather past 2 weeks in Macon, Georgia, U.S.A.

Now
79 °F

Scattered clouds.


Feels Like: 82 °F
Forecast: 73 / 90 °F
Wind: 15 mph from Southeast

Location: Middle Georgia Regional Airport

Current Time: Jul 31, 2015 at 6:30:35 PM

Latest Report: Jul 31, 2015 at 4:53 PM


Visibility: 10 mi

Pressure: 29.91 "Hg

Humidity: 74%

Dew point: 70 °F

Location of MaconLocation

Historic Weather in Macon — Graph

°F

Macon temperature yesterday

Maximum temperature yesterday: 95 °F (at 1:53 PM)
Minimum temperature yesterday: 74 °F (at 5:53 AM)
Average temperature yesterday: 83 °F

Past Weeks' High & Low Weather Summary

 TemperatureHumidityPressure
High101 °F (Jul 19, 3:53 PM)97% (Jul 18, 2:53 AM)30.05 "Hg (Jul 18, 2:53 AM)
Low68 °F (Jul 26, 6:53 AM)31% (Jul 21, 4:53 PM)29.77 "Hg (Jul 21, 4:53 PM)
Average83 °F70%29.93 "Hg
* Reported Jul 16 4:53 PM — Jul 31 4:53 PM, Macon, Weather by CustomWeather, © 2015

Note: Actual official high and low records may vary slightly from our data, if they occured in-between our weather recording intervals... More about our weather records

Advertising

Macon weather history for previous 24 hours

 ConditionsComfort  
Time TempWeatherWind HumidityBarometerVisibility
4:53 PM
Fri, Jul 31
79 °FScattered clouds.15 mph74%29.91 "Hg10 mi
4:00 PM79 °FThunderstorms. Mostly cloudy.20 mph79%29.89 "Hg10 mi
2:53 PM94 °FPartly sunny.3 mph51%29.86 "Hg10 mi
1:53 PM96 °FBroken clouds.7 mph51%29.90 "Hg10 mi
12:53 PM94 °FScattered clouds.7 mph52%29.92 "Hg10 mi
11:53 AM90 °FSunny.5 mph59%29.93 "Hg10 mi
10:53 AM87 °FSunny.No wind67%29.93 "Hg10 mi
9:53 AM85 °FSunny.5 mph70%29.92 "Hg10 mi
8:53 AM82 °FSunny.5 mph77%29.93 "Hg10 mi
7:53 AM76 °FSunny.No wind91%29.92 "Hg7 mi
6:53 AM73 °FFog.No wind97%29.90 "Hg6 mi
5:53 AM74 °FClear.No wind94%29.88 "Hg10 mi
4:53 AM74 °FClear.No wind97%29.89 "Hg10 mi
3:53 AM76 °FClear.No wind91%29.90 "Hg10 mi
2:53 AM76 °FClear.No wind91%29.89 "Hg10 mi
1:53 AM77 °FClear.No wind88%29.90 "Hg10 mi
12:53 AM77 °FClear.3 mph90%29.91 "Hg10 mi
11:53 PM
Thu, Jul 30
79 °FClear.No wind84%29.92 "Hg10 mi
10:53 PM78 °FClear.3 mph87%29.93 "Hg10 mi
9:53 PM80 °FClear.3 mph81%29.91 "Hg10 mi
8:53 PM81 °FSunny.6 mph82%29.90 "Hg10 mi
7:53 PM85 °FSunny.No wind70%29.88 "Hg10 mi
6:53 PM84 °FSunny.3 mph70%29.88 "Hg10 mi
Weather by CustomWeather, © 2015

See weather overviewHow to use our weather pages